Weather Service Report


169 
FPUS83 KFGF 272110
OPUFGF
PRAIRIE TO PINES WEATHER ROUNDUP
NATIONAL WEATHER SERVICE EASTERN NORTH DAKOTA/GRAND FORKS ND
400 PM CDT WED JUL 27 2016

 **SATELLITE DATA USED TO AUGMENT SKY COVER AT AUTOMATED STATIONS**
 *****  WEATHER ACROSS EASTERN NORTH DAKOTA  *****
  
CITY           SKY/WX    TMP DP  RH WIND       PRES   REMARKS
GRAND FORKS    MOSUNNY   77  59  53 N14       30.05F                  
GRAND FORKS AF SUNNY     76  56  49 N17       30.07F                  
GRAND CITY NWS   N/A     75 N/A N/A N13         N/A                   
BUXTON         NOT AVBL                                               
DEVILS LAKE    MOSUNNY   73  56  54 N10       30.12F                  
FARGO          SUNNY     78  59  51 N21       30.03F                  
WAHPETON ARPT  CLEAR     79  54  41 N14G21    30.02S                  
$$

 *****  WEATHER ACROSS CENTRAL AND WESTERN NORTH DAKOTA  *****
  
CITY           SKY/WX    TMP DP  RH WIND       PRES   REMARKS
JAMESTOWN      SUNNY     76  59  55 N12       30.08F                  
BISMARCK       CLOUDY    76  61  59 VRB5      30.11S                  
MINOT          MOSUNNY   78  58  49 VRB6      30.12F                  
MINOT AFB      NOT AVBL                                               
GARRISON         N/A     76  61  59 E9        30.12S                  
WILLISTON      CLOUDY    69  60  73 N8        30.15R                  
DICKINSON      CLOUDY    72  59  63 E6        30.12S                  
HETTINGER      LGT RAIN  66  62  87 NW7       30.15S                  
$$

 *****  OTHER OBSERVATIONS NORTHEAST NORTH DAKOTA  *****
  
CITY           SKY/WX    TMP DP  RH WIND       PRES   REMARKS
WALHALLA       NOT AVBL                                               
LANGDON        FAIR      73  55  53 NE14      30.14S                  
CAVALIER       FAIR      73  55  53 N12       30.10F                  
GRAFTON        FAIR      75  59  57 N16       30.10F                  
CANDO          NOT AVBL                                               
FORT TOTTEN    NOT AVBL                                               
ROLLA            N/A     72  55  56 N9        30.17R                  
RUGBY          NOT AVBL                                               
 ***** THE ABOVE OBSERVATIONS ARE NON NWS ARE NOT QUALITY
        CONTROLLED AND MAY MIS-REPORT RAIN FOR SNOW...
$$

 *****  OTHER OBSERVATIONS SOUTHEAST NORTH DAKOTA *****
  
CITY           SKY/WX    TMP DP  RH WIND       PRES   REMARKS
COOPERSTOWN    NOT AVBL                                               
VALLEY CITY    FAIR      75  59  57 NE15G22   30.08F                  
OAKES            N/A    N/A N/A N/A MISG        N/A                   
GWINNER        FAIR      79  61  53 N15       30.05F                  
BUFFALO        NOT AVBL                                               
WYNDMERE       NOT AVBL                                               
 ***** THE ABOVE OBSERVATIONS ARE NON NWS ARE NOT QUALITY
       CONTROLLED AND MAY MIS-REPORT RAIN FOR SNOW...
$$

  *****  WEATHER ACROSS NORTHERN MINNESOTA  *****     
  
CITY           SKY/WX    TMP DP  RH WIND       PRES   REMARKS
FLAG ISLAND    SUNNY     72  55  56 N15       30.07S                  
WARROAD        NOT AVBL                                               
ROSEAU         SUNNY     77  63  61 NE9       30.06R                  
HALLOCK        MOSUNNY   75  59  57 N14       30.07F                  
THF RVR FALLS  PTSUNNY   77  61  57 N14       30.05R                  
HALSTAD        NOT AVBL                                               
FOSSTON        PTSUNNY   81  61  50 NW9       30.03S                  
BAUDETTE       CLOUDY    77  60  55 N10       30.04F                  
WASKISH        CLOUDY    79  61  53 E10       30.03S                  
CROOKSTON      MOSUNNY   77  61  57 N17       30.04F                  
$$
  *****  WEATHER ACROSS CENTRAL AND WEST MINNESOTA  *****     
  
CITY           SKY/WX    TMP DP  RH WIND       PRES   REMARKS
BEMIDJI        CLOUDY    70  63  78 E8        30.03S                  
PARK RAPIDS    PTSUNNY   76  62  62 NE8       30.02S                  
WADENA         NOT AVBL                                               
DETROIT LAKES  SUNNY     75  61  60 NW16      30.04R                  
MOORHEAD       SUNNY     75  61  60 N13G18    30.03F                  
FERGUS FALLS   SUNNY     79  59  50 N16G23    30.02S                  
ELBOW LAKE     FAIR      76  63  62 N12G17    30.01S                  
MORRIS MN      MOSUNNY   81  64  57 N14       29.99S                  
STAPLES        PTSUNNY   73  63  68 N7        30.01S                  
WHEATON        SUNNY     81  61  50 N12G21    30.03S                  
$$
  *****  WEATHER ELSEWHERE ACROSS MINNESOTA  *****     
  
CITY           SKY/WX    TMP DP  RH WIND       PRES   REMARKS
DULUTH         CLOUDY    63  60  90 SE9       30.03S                  
INTRNTL FALLS  SUNNY     77  57  50 NE8       30.04F                  
ELY            CLOUDY    70  59  68 NE3       30.04F                  
CLOQUET        CLOUDY    64  55  72 E15G22    30.01F                  
BRAINERD       HVY RAIN  68  66  93 NE13      30.00R VSB 3/4          
HIBBING        CLOUDY    69  62  78 E8        30.03F                  
ALEXANDRIA     MOSUNNY   78  62  57 N12G21    30.02R                  
SAINT CLOUD    PTSUNNY   75  65  70 NW8       29.96S                  
MINNEAPOLIS    CLOUDY    72  68  87 NW12      29.93R                  
$$

  *****  WEATHER ACROSS SOUTH DAKOTA  *****
  
CITY           SKY/WX    TMP DP  RH WIND       PRES   REMARKS
SIOUX FALLS    MOSUNNY   82  66  58 N9        29.98F                  
BROOKINGS      MOSUNNY   78  64  61 N7        30.02R                  
WATERTOWN      MOSUNNY   81  62  52 N15       30.03R                  
HURON          SUNNY     83  63  50 NE13      30.00F                  
SISSETON         N/A     79  59  50 N14       30.02R                  
ABERDEEN       SUNNY     80  61  52 NE12      30.05S                  
MITCHELL       MOSUNNY   85  62  46 NE10      29.99F                  
PIERRE         CLOUDY    86  60  41 NE13      30.01F                  
MOBRIDGE       CLOUDY    83  60  45 NE12      30.05F                  
RAPID CITY     MOSUNNY   82  60  47 N16       30.14R                  
$$

  *****  SOME WEATHER IN NEARBY STATES *****
  
CITY           SKY/WX    TMP DP  RH WIND       PRES   REMARKS
GLASGOW MT     CLOUDY    75  60  59 SE8       30.12F                  
GREAT FALLS MT MOSUNNY   84  47  27 NE9       30.16S                  
CHEYENNE WY    SUNNY     83  50  31 VRB3      30.23S                  
SCOTTSBLUFF NE SUNNY     87  49  26 E7        30.10F                  
OMAHA NE       MOSUNNY   84  69  60 NE5       29.96F                  
DES MOINES IA  CLOUDY    82  69  64 W5        29.96S                  
DAVENPORT IA   MOSUNNY   85  69  58 W8        29.95F                  
CHICAGO IL     PTSUNNY   87  61  41 S6        29.93F                  
EAU CLAIRE WI  CLOUDY    81  67  62 S10       29.91F                  
LA CROSSE WI   CLOUDY    83  68  60 SW9       29.92F                  
$$

  *****  SOME NATIONAL WEATHER *****
  
CITY           SKY/WX    TMP DP  RH WIND       PRES   REMARKS
LA GUARDIA NY  MOSUNNY   94  63  35 SE10      29.88F HX  95           
RALEIGH NC     CLOUDY    89  78  70 W5        29.94S HX 103           
ATLANTA GA     MOSUNNY   91  68  46 SW12      30.03F HX  95           
NEW ORLEANS LA PTSUNNY   84  71  65 SW14      30.04F                  
OKLAHOMA CITY  PTSUNNY   93  71  48 CALM      29.92F HX 100           
ALBUQUERQUE NM CLOUDY    90  50  25 VRB6      30.15F                  
SALT LAKE CITY MOSUNNY   99  30   9 NW7       30.10F HX  93           
LOS ANGELES CA MOSUNNY   79  65  62 W14       29.92S                  
BOISE ID       SUNNY     96  44  16 VRB5      29.99F HX  92           
SEATTLE WA     MOSUNNY   77  61  57 W12       30.13F                  
$$

*** WEATHER ACROSS MANITOBA...SASKATCHEWAN AND ONTARIO ***
                ***ONTARIO***
  
CITY           SKY/WX    TMP DP  RH WIND       PRES   REMARKS
GERALDTON      PTSUNNY   72  50  46 W8G17     30.01F                  
THUNDER BAY    PTSUNNY   73  59  60 E6        30.02S                  
SIOUX LOOKOUT  MOSUNNY   68  52  56 NE5       30.10F                  
TORONTO        PTSUNNY   91  63  38 W10G24    29.87F HX  92           
BIG TROUT LK   NOT AVBL                                               
PICKLE LAKE    MOSUNNY   70  45  40 N6        30.09S                  
DRYDEN         PTSUNNY   70  54  56 N6        30.09F                  
KENORA         MOSUNNY   70  54  56 NE6       30.10F                  
$$      
                *** MANITOBA***
  
CITY           SKY/WX    TMP DP  RH WIND       PRES   REMARKS
BRANDON        PTSUNNY   72  52  49 NE10      30.17R                  
DAUPHIN        SUNNY     73  50  43 VRB7      30.16F                  
ISLAND LAKE    MOSUNNY   68  50  52 W7        30.14F                  
PILOT MOUND      N/A     70  52  52 N12         N/A                   
THE PAS        MOSUNNY   77  50  38 S8        30.12F                  
THOMPSON       PTSUNNY   73  48  40 SW7       30.11F                  
WINNIPEG       PTSUNNY   72  57  60 N13G20    30.13S                  
LYNN LAKE      MOSUNNY   68  59  73 MISG      30.05F                  
CHURCHILL      MOSUNNY   66  50  55 E12       30.07F                  
GILLAM         MOSUNNY   66  46  48 NW3       30.12F                  
$$
                ***SASKATCHEWAN***
  
CITY           SKY/WX    TMP DP  RH WIND       PRES   REMARKS
ESTEVAN        PTSUNNY   73  57  56 E8        30.14F                  
KINDERSLEY     PTSUNNY   75  59  57 E7        30.17S                  
LLOYDMINSTER   PTSUNNY   79  55  44 VRB2      30.13S                  
PRINCE ALBERT  CLOUDY    79  55  44 W6        30.13F                  
REGINA         PTSUNNY   75  55  50 S8        30.16S                  
YORKTON        SUNNY     73  50  43 VRB5      30.18S                  
N. BATTLEFORD  SUNNY     79  52  38 SW5       30.16S   C1F1C2F2C3F3C4F4C5F5C6F6C7F7C8F8C9F9CaFaCbFbCcFcCdFdCe!

Return to Home page


Western Regional Climate Center, wrcc@dri.edu